Regional Weather Roundup
Issued by NWS

Home | Current Version | Previous Version | Graphics & Text | Print | Product List | Glossary On
Versions: 1 2 3 4 5 6 7 8 9 10 11 12 13 14 15 16 17 18 19 20 21 22 23 24 25 26 27 28 29 30 31 32 33 34 35 36 37 38 39 40 41 42 43 44 45 46 47 48 49 50
000
ASUS43 KMKX 292000
RWRWI

WISCONSIN REGIONAL WEATHER ROUNDUP
NATIONAL WEATHER SERVICE MILWAUKEE/SULLIVAN WI
300 PM CDT MON MAY 29 2017

NOTE: "FAIR" INDICATES FEW OR NO CLOUDS BELOW 12,000 FEET WITH NO
SIGNIFICANT WEATHER AND/OR OBSTRUCTIONS TO VISIBILITY.

WIZ001-002-006>008-014>016-023>028-292100-
NORTHWEST WISCONSIN

CITY           SKY/WX    TMP DP  RH WIND       PRES   REMARKS
SUPERIOR ARPT  NOT AVBL
ASHLAND        CLOUDY    62  52  69 W18       29.70R
HAYWARD        CLOUDY    62  46  55 VRB7      29.73R
SIREN          PTSUNNY   59  51  74 W10       29.76F
CUMBERLAND     CLOUDY    57  48  72 NW13G20   29.77S
RICE LAKE      CLOUDY    60  51  72 W13       29.78S
CHETEK         PTSUNNY   56  52  86 W7        29.77F
LADYSMITH      CLOUDY    58  52  79 W14G20    29.76S
EAU CLAIRE     NOT AVBL
MENOMONIE      CLOUDY    64  48  56 W16       29.79S
NEW RICHMOND   PTSUNNY   63  48  59 W22       29.79S
OSCEOLA        PTSUNNY   61  48  62 W12       29.82S
$$

WIZ003>005-009-010-017-018-292100-
NORTH CENTRAL WISCONSIN

CITY           SKY/WX    TMP DP  RH WIND       PRES   REMARKS
MANITOWISH WTR PTSUNNY   57  56  97 W12       29.70S
ARBOR VITAE    CLOUDY    57  53  85 NW9G20    29.70R
WOODRUFF       CLOUDY    57  53  85 NW9G20    29.70R
RHINELANDER    PTSUNNY   61  50  67 W20G28    29.71R
EAGLE RIVER    CLOUDY    56  47  70 NW14G25   29.69R
LAND O LAKES   LGT RAIN  54  51  89 W8        29.70R
PHILLIPS       PTSUNNY   60  51  69 W12G21    29.71S
TOMAHAWK       CLOUDY    55  48  75 W8G17     29.73R
MEDFORD        MOSUNNY   59  47  64 W17G25    29.75R
MERRILL        PTSUNNY   61  49  64 W15G23    29.74R
$$

WIZ029-030-035-036-043>047-292100-
CENTRAL WISCONSIN

CITY           SKY/WX    TMP DP  RH WIND       PRES   REMARKS
WAUSAU         PTSUNNY   62  47  57 W21G26    29.73S
MOSINEE        PTSUNNY   63  48  59 W20G28    29.76S
MARSHFIELD     LGT RAIN  57  47  69 W16G25    29.76R
STEVENS POINT  MOSUNNY   61  48  62 W16G23    29.77S
WAUPACA        PTSUNNY   67  47  48 SW20G26   29.77R
WAUTOMA        PTSUNNY   64  49  57 W13       29.79
WISC RAPIDS    PTSUNNY   64  48  56 W12G18    29.78F
CAMP DOUGLAS   NOT AVBL
$$

WIZ011>013-019>022-031-037>040-048>050-292100-
NORTHEAST WISCONSIN

CITY           SKY/WX    TMP DP  RH WIND       PRES   REMARKS
ANTIGO         PTSUNNY   57  53  85 W15       29.73F
SHAWANO        PTSUNNY   65  52  62 W15G24    29.74S
OCONTO         MOSUNNY   64  45  49 W21G35    29.71R
STURGEON BAY   MOSUNNY   65  51  60 SW20G26   29.71R
GREEN BAY      PTSUNNY   67  51  56 W16G23    29.74R
MANITOWOC      NOT AVBL
APPLETON       PTSUNNY   64  45  48 W17G23    29.75R
CLINTONVILLE   LGT RAIN  55  48  76 W8        29.76R
OSHKOSH        PTSUNNY   66  46  48 W12G24    29.77R
$$

WIZ032>034-041-042-053>061-292100-
SOUTHWEST WISCONSIN

CITY           SKY/WX    TMP DP  RH WIND       PRES   REMARKS
LA CROSSE      LGT RAIN  61  51  70 NW14      29.82R
SPARTA         LGT RAIN  62  49  61 W15G22    29.82S
VIROQUA        CLOUDY    64  45  51 MISG      29.83F
BOSCOBEL       PTSUNNY   69  44  40 W14G24    29.84S
PRAIRIE DU CHI PTSUNNY   68  42  38 W18G28    29.85S
PLATTEVILLE    PTSUNNY   68  46  45 W23G29    29.87S
$$

WIZ056-057-062-063-064-067-068-292100-
SOUTH CENTRAL WISCONSIN

CITY           SKY/WX    TMP DP  RH WIND       PRES   REMARKS
REEDSBURG      PTSUNNY   65  46  49 W17G28    29.82F
BARABOO/DELLS  CLOUDY    63  44  51 W13G21    29.82R
LONE ROCK      NOT AVBL
MINERAL POINT  CLOUDY    68  45  42 W22G28    29.84F
MADISON        PTSUNNY   67  46  47 W12G22    29.82R
MIDDLETON      MOSUNNY   69  49  48 W18G26    29.83S
WATERTOWN      CLOUDY    66  46  47 W16G23    29.81S
MONROE         MOSUNNY   68  43  40 W20G26    29.85S
JANESVILLE     MOSUNNY   72  45  37 W17G25    29.83R
$$

WIZ051-052-058>065-066-070>072-292100-
SOUTHEAST WISCONSIN

CITY           SKY/WX    TMP DP  RH WIND       PRES   REMARKS
MILWAUKEE      PTSUNNY   73  46  38 W17G26    29.80R
WAUKESHA       PTSUNNY   64  46  52 W16G29    29.82R
MILWAUKEE/TIMM PTSUNNY   66  43  42 W14G29    29.81R
RACINE         MOSUNNY   72  44  36 W16G24    29.82R
KENOSHA        MOSUNNY   72  46  39 W23G32    29.82R
FOND DU LAC    PTSUNNY   67  43  41 W20G28    29.77S
SHEBOYGAN      PTSUNNY   67  49  52 W17G28    29.77S
WEST BEND      CLOUDY    68  45  42 W20       29.79S
JUNEAU         PTSUNNY   67  47  49 W14G24    29.81S
$$

LSZ147-162-292100-
LAKE SUPERIOR

STATION/POSITION TIME  TEMP    WIND        PRES    WAVE
                       AIR SEA DIR/SP/G            HT/PER
                 (UTC) (F)     (DEG/KT/KT) (MB)    (FT/S)
W MID LAKE BUOY  1850   44 37  250/ 17/ 21 1003.1R   3/ 4
DEVILS ISLAND    1900   49     240/ 21/ 23 1004.6R
PORT WING        1940   54     250/ 14/ 20 1006.4R
SAXON HARBOR     1930   59     270/  5/  8 1005.4R
$$

LMZ867-665-643>646-292100-
LAKE MICHIGAN

STATION/POSITION TIME  TEMP    WIND        PRES    WAVE
                       AIR SEA DIR/SP/G            HT/PER
                 (UTC) (F)     (DEG/KT/KT) (MB)    (FT/S)
CHAMBERS ISLAND  1940   65     200/ 11/ 16 1004.4R
N MID LAKE BUOY  1850   47 41  180/ 16/ 17 1005.3S   2/ 4
NORTHPORT PIER   1940   66     250/  8/ 19 1004.7R
KEWAUNEE LAKESHO 1930   66     270/ 15/ 25 1006.2S
SHEBOYGAN LAKESH 1900   65     260/ 20/ 24 1007.6R
PORT WASHINGTON  1940   69     280/ 10/ 20 1009.8R
ATWATER BUOY     1809   64     260/ 16/ 21 1008.7R
MILWAUKEE LAKESH 1930   68     280/ 14/ 18   N/A
S MID LAKE BUOY  1850   52 48  230/  8/  8 1009.7R   1
KENOSHA   LAKESH 1900   71     270/ 17/ 25 1009.1
$$

TC  - TEMPERATURE IN CELSIUS
VSB - VISIBILITY IN STATUTE MILES
WCI - WIND CHILL INDEX
HX  - HEAT INDEX





USA.gov is the U.S. government's official web portal to all federal, state and local government web resources and services.